◎27P/Crommelinの軌道と予報位置

 周期が27年のこの彗星は,2011年8月に近日点を通過しました.その観測は,
7月25日の上尾の門田健一氏の観測以後,途絶えていました.しかし,すでに
MPECで報じられているとおり,久しぶりにチリのラシラの60-cm望遠鏡でこの彗
星が1月6日と15日に観測されました.彼らの核光度は20等級でした.
 昨日になって,芸西の関勉氏からも,12月27日と30日の観測が報告されました.
氏の核光度は,それぞれ,18.5等と18.7等でした.下の予報光度は,関氏の観測に
あわせてあります.

  27P/Crommelin
Epoch 2011 July 18.0 TT = JDT 2455760.5  
T 2011 Aug. 3.80874 TT                                  Nakano
q   0.7478730            (2000.0)            P               Q
n   0.03529821     Peri.  195.98008     +0.09146166     -0.88487201
a   9.2038097      Node   250.63801     +0.95843425     +0.20270786
e   0.9187431      Incl.   28.95676     +0.27025645     -0.41941752
P  27.92
From 392 observations 1928-2012, weighting mean residual 1".79.
   Nongravitational parameters A1 = +0.13 +/- 0.02, A2 = -0.00011 +/- 0.00001.
   T. Seki gives m2= 18.5 on 2011 Dec. 27 and m2= 18.7 on Dec. 30.
Residuals in seconds of arc 
1928/                     840221 046  0.6+  1.6-    840402 801 (0.9+  3.7+) 
281124 662  3.2+  3.5-    840222 675  1.1+  0.2-    840403 808 (6.9-  4.3+) 
281125 754(10.6+  4.0-)   840222 168  2.3+  1.7-    840403 323  1.9-  0.8-  
281125 662  0.2+  2.5-    840222 168 (4.4+  0.9-)   840403 114  2.5+  1.5+  
281130 078  1.4+  3.9+    840222 168  0.1+  1.1-    840404 323  0.4-  1.4+  
281201 078  6.8+  2.2+    840222 168  1.6+  0.1-    840405 323  0.1-  0.8+  
281205 754  2.8+  2.4+    840222 102 (5.0-  0.4-)   840406 323  1.4+  0.5+  
281206 754 (9.5+  1.7+)   840222 051  0.6-  2.4+    840406 323  0.4+  0.3-  
281208 078 (5.3+  8.2+)   840222 051 (1.6-  4.2+)   840408 675  0.3+  1.2+  
281208 754  4.0+  5.1+    840222 051 (5.0-  2.7+)   840409 323 (4.0+  0.6+) 
281209 754  1.5+  3.6+    840223 190  0.2-  0.0     840418 323 (7.4+  6.4+) 
281210 754  3.0+  6.0+    840223 123  1.6+  2.5+    840421 675  0.6-  0.1+  
281212 078(12.6+ 10.1+)   840223 102  3.3+  1.1- Y  840423 474  0.3-  2.6+  
281216 078 (8.4+  4.4+)   840223 069 (4.0+  0.5+)   840423 474  2.9-  2.9+  
1956/                     840223 069  0.8-  1.2-    840426 323 (4.3+ 10.4+) 
560930 056 (7.2+  7.9+)   840224 323  0.8-  0.5-    840427 323  2.2-  0.7+  
560930 056(11.2+  2.9-)   840224 186 (4.2-  5.5+)   840503 323 (1.4+ 14.6+) 
561001 056 (6.7+  1.4-)   840224 123  0.6+  0.6+    840507 675  2.1-  0.8+  
561001 056  2.9+  0.2+    840224 102 (7.8-  7.1+)Y  840526 474  0.1+  1.1+  
561002 056 (2.8+  4.4+)   840224 114  0.6-  0.6+    840527 474  0.3+  1.9+  
561002 056  2.4+  1.2+    840224 123  3.4-  1.9+    840527 474  0.8-  1.4+  
561003 754  2.0+  0.2-    840224 102  0.4-  0.5- Y  2011/                   
561003 754  2.9+  0.9+    840224 114  2.1-  1.4+    110512 372  0.3+  0.3-  
561005 754 (4.9+  5.4-)   840224 123  0.9-  1.8+    110512 372  0.3+  0.0   
561005 754  1.6+  0.8-    840225 675  2.2+  2.0-    110529 H15  0.1+  0.1+  
561006 801  1.7+  0.8-    840225 168  1.4-  1.2+    110529 H15  0.5+  0.1-  
561006 801 (3.9+  2.5-)   840225 168  0.3-  0.1+    110529 H15  0.4+  0.5+  
561008 056  1.5+  2.0-    840225 168  1.3+  0.2-    110530 H15  0.3+  0.6+  
561008 801  0.4+  1.3+    840225 123  1.0+  0.3-    110530 H15  0.3+  0.3+  
561008 754 (4.6+  1.3+)   840225 123  1.4+  1.0-    110530 H06  0.6+  1.5+  
561008 754  3.1+  0.3+    840225 095  1.5+  0.6-    110530 H15  0.3+  0.3+  
561013 754  1.1+  3.0+    840225 095  0.6-  0.3-    110530 H06  0.2+  1.5+  
561013 754  0.3+  2.1+    840225 123  0.9-  0.1+    110531 H15  1.0+  1.9-  
561016 330 (3.8+  1.6+)   840226 095  0.1+  0.2-    110531 H15  1.6+  0.4+  
561016 330 (5.2+  1.4+)   840226 095  1.4+  0.0     110531 H15  0.1+  0.6+  
561017 754  1.0+  1.3+    840227 323  1.3+  0.5+    110603 D95  0.5-  1.3+  
561017 754  2.9+  0.4-    840227 123  0.1+  1.5+    110603 D95  0.8+  0.4+  
561017 330  3.1+  1.0+    840227 114  1.0+  0.9+    110603 349  1.5+  0.4+  
561017 330  3.3+  0.7-    840227 123  2.7-  0.1-    110603 D95  0.9+  1.4+  
561021 330  3.0+  0.1+    840227 102 (4.5-  4.4-)Y  110603 349  0.6+  0.6-  
561021 330  2.0+  0.8+    840227 123  0.8+  1.9+    110605 H06  1.3-  0.3-  
561107 076  3.3+  2.4+    840227 102 (1.1-  3.8+)   110605 H06  1.1-  0.3-  
561110 822  2.3+  2.4+    840227 102  2.2+  2.9+    110608 H06 (0.9-  2.3+) 
561110 822 (1.5+  3.8+)   840227 114  2.0-  0.1+    110608 H06 (0.4-  2.5+) 
561112 330  1.8+  3.2+    840227 102  1.6-  2.0+    110609 H06 (2.0-  0.6+) 
561112 330  2.1+  1.9+    840227 102 (3.3+  4.6+)   110609 H06  0.5+  1.1+  
1983/                     840227 069  1.8+  0.9-    110609 H06  1.4+  1.0+  
830809 493  1.2-  1.4+    840227 046 (6.9-  2.8+)   110611 A71 (1.6+  2.6-) 
830809 493  0.9-  2.6+    840228 323  1.1-  0.9-    110611 A71  1.0-  1.6-  
830810 493  0.3-  1.9+    840228 123  0.0   0.6-    110611 A71  0.9+  0.3-  
830813 695  0.6-  1.5+    840228 114 (4.6+  3.4-)   110611 D95 (2.2+  1.2-) 
830818 493  1.5-  2.1+    840228 123  0.8-  0.0     110611 D95 (2.6+  0.2+) 
830818 493  0.2-  1.4+    840228 114  1.0+  0.5+    110612 H06  0.6+  1.2+  
830830 675  0.5-  1.8+    840228 051  2.0-  2.0+    110612 H06  0.3-  1.5+  
830831 675  0.6-  0.9+    840228 051  1.3+  1.4-    110612 H06  1.4-  1.6+  
830904 500  0.1-  2.0+    840229 805  0.9+  2.6-    110613 A71 (2.1+  1.1-) 
830904 500  1.2-  1.9+    840229 805  0.8-  0.9-    110613 A71  0.3+  0.1+  
830904 500  0.0   1.7+    840229 805  1.2-  1.2-    110613 A77  0.7+  0.0   
830927 493  1.4-  0.6+    840229 372  1.7+  1.3+    110613 A77 (2.3+  0.1+) 
831027 707  0.5-  0.6+    840229 372  0.9-  0.0     110614 H06  0.2+  1.3+  
1984/                     840229 372  1.3+  0.3-    110614 H06  0.1-  0.9+  
840101 801  0.0   1.5+    840229 372  0.2+  0.5-    110614 D95  0.1-  0.9+  
840103 707  0.9-  0.9-    840229 372  0.2-  1.7+    110614 D95  1.3-  0.1-  
840104 372 (8.0-  5.0+)Y  840229 372  0.9+  0.3+    110615 H06 (2.4-  2.5-) 
840106 190(12.7+  2.7+)   840229 372  0.0   0.0     110615 H06 (2.1-  2.2-) 
840120 017  0.2-  2.6+ Y  840229 330  0.1+  0.6-    110619 H06  0.2-  0.3+  
840122 494  0.2-  2.4-    840229 330 (4.3+  2.8+)   110619 H06  0.2+  0.2+  
840122 494  0.5+  1.9-    840229 323  1.3-  0.1-    110620 A71  0.5+  0.4+  
840123 707  3.3+  1.0+    840229 168 (5.5+  1.4+)   110620 A71 (3.2+  2.5+) 
840124 381 (4.1+  0.0 )   840229 168 (5.1+  0.6+)   110620 H06  0.2-  0.2+  
840127 372  2.7+  0.1- Y  840229 168  0.7-  0.2-    110620 H06  0.2-  0.5+  
840127 168  3.3+  1.7-    840301 323  1.3-  0.5+    110620 H06  0.2-  0.4+  
840129 168 (3.7-  0.8-)   840301 323  0.4-  2.7+    110621 H06  0.9+  0.9+  
840129 168  0.5-  1.0-    840301 168  3.2-  2.0-    110621 H06  0.7+  1.4+  
840130 168 (3.8+  2.4+)   840301 168  2.9-  2.7-    110621 H06 (0.5+  2.2+) 
840130 168 (6.5-  6.2+)   840301 061 (8.5-  0.7+)   110621 349  0.0   0.3+  
840130 168 (5.2+  2.8+)   840301 061 (5.3-  1.2-)   110621 349  0.6+  0.2-  
840130 056  2.0+  3.4-    840301 061  2.9-  2.7+    110621 349  0.1-  0.1+  
840131 801  1.3-  0.9+    840302 801  2.0+  1.3+    110622 H06  0.4+  0.5+  
840201 095 (5.7-  0.1+)   840302 330 (4.1-  0.0 )   110622 H06  0.8+  1.2+  
840201 493  2.0+  0.1+    840302 330  1.5-  0.9+    110624 H06 (0.0   2.3+) 
840201 493  1.7+  0.7+    840302 330  1.0+  2.9-    110624 H06 (0.0   2.4+) 
840201 801  0.5-  0.9-    840302 323  0.1-  1.2-    110624 H06  0.2-  1.5+  
840202 114  0.3-  0.8+    840302 168  1.6-  2.4-    110625 A71  0.4+  0.3-  
840202 095 (0.2+  4.2+)   840302 168  1.3-  0.7-    110625 A71  0.3-  1.1-  
840202 095  0.8+  0.3+    840302 114  1.7-  2.2+    110625 A71 (3.1+  0.8-) 
840202 095  1.0+  0.4+    840303 051  1.6-  2.1+    110627 A71  1.9+  1.4-  
840202 095 (5.7-  3.2+)   840303 801  1.0+  0.1-    110627 A71  0.4-  1.9-  
840203 168 (6.0-  2.0-)   840304 330  1.1+  0.3-    110629 D95  0.4-  0.2-  
840203 168  2.5-  0.5-    840304 026  0.1+  0.9+    110629 D95  0.1-  0.1-  
840203 168  0.4-  0.8+    840304 022 (7.5-  3.0+)   110629 D95  0.2-  0.7+  
840203 168 (5.9-  0.8+)   840304 022 (3.9-  2.1-)   110629 D95  0.1+  0.1+  
840203 114  3.0+  0.8-    840304 026  2.6+  0.9+    110630 H06  0.4+  0.1-  
840203 095  2.8-  1.0+    840305 190  2.5+  0.1+    110630 H06  0.3+  0.6+  
840203 095  3.2-  0.3-    840305 022  2.2-  0.4+    110630 H06  0.3-  0.9+  
840203 095 (6.3-  1.1+)   840305 022 (3.7+  0.3-)   110630 H06  0.1-  0.4-  
840204 186  1.7-  2.0+    840305 026  0.1+  1.1-    110701 H06  0.1+  0.2+  
840204 114  1.5+  1.7-    840306 688  0.8+  1.4+    110701 H06  0.3-  0.1+  
840205 114  0.1+  0.8-    840306 688  1.6-  2.0+    110701 H06  0.5-  0.2+  
840205 493  2.3+  0.8-    840306 688  0.6+  0.8+    110705 H06  1.5+  1.1+  
840206 168  1.5-  1.9+    840306 688  0.6+  0.1+    110705 H06  0.7-  0.4+  
840206 168 (2.5-  4.2-)   840306 323  0.5-  0.5-    110705 H06  0.4-  0.0   
840206 168 (5.0-  2.8-)   840306 114  0.2+  0.2+    110705 H06  0.0   0.0   
840206 168 (3.9-  3.8-)   840306 046  2.0-  1.9+    110705 D95  1.4+  1.2+  
840206 095  0.9+  0.3-    840306 046 (8.2-  3.2+)   110705 D95  0.5+  1.0+  
840206 095  0.4+  1.3+    840306 022  2.5-  0.4+    110705 D95 (2.7+  0.8+) 
840206 022 (4.5+  0.1-)   840306 022 (6.2-  0.7+)   110705 372  1.0-  0.2+  
840206 022 (5.8+  1.6+)   840306 022  3.4-  0.0     110705 372  1.8-  0.1+  
840207 330 (0.6+  4.3+)   840306 801  0.2+  1.4-    110707 A71  1.3-  1.5+  
840207 330  1.3+  0.1+    840307 051  1.4-  0.2-    110707 A71  1.5-  1.6+  
840207 168  2.2+  1.6-    840308 168 (2.1-  6.6+)   110707 A71  0.1+  0.4-  
840207 168 (2.3+  3.8+)   840309 323  0.7-  2.2+    110707 A71  0.7-  1.0+  
840207 168  0.2-  1.2-    840309 323  1.4+  1.0-    110707 A71  1.6+  0.1+  
840207 168  0.1-  3.0-    840309 168 (3.6-  1.1+)   110707 A71  1.3-  1.1+  
840207 168  0.2+  1.0+    840310 102 (5.7-  5.7+)   110707 A71  1.0+  0.0   
840207 168 (0.7-  5.3-)   840311 675  0.5+  0.5-    110707 A71  1.5+  0.2+  
840207 186 (0.8-  5.0+)   840311 190  0.9+  1.8+    110707 H06  0.1-  0.6+  
840208 330 (9.6-  0.5-)   840311 190  2.3-  2.4+    110707 H06  0.1-  0.8+  
